Theta_e
307 306 307 307 307 307 308 308 308 309 309 309 309 310 310 310 310 311 311 311 312 312 313 313 313 314 313 314 314 314 314 315 316 315 316 318 318 318 318 318 317 318 320 322 325 326 333 344 349 352 355 355 356 358 358 358 359 356 355 356 353 350 347 348 351 347 344 343 342 344 349 351 350 352 352 352 352 351 352 352 351 352 350 351 352 351 352 352
307 307 307 307 307 307 307 307 308 308 308 309 309 310 309 310 310 310 311 311 311 312 312 313 313 313 313 314 314 314 314 315 316 317 319 321 321 321 319 318 318 318 321 323 325 326 331 341 348 352 354 355 357 358 359 359 360 357 354 353 352 350 347 345 345 343 342 344 341 343 349 349 349 352 352 352 352 351 353 353 352 352 352 352 352 352 353 353
308 308 308 307 307 307 307 308 308 307 308 308 308 309 309 309 310 310 310 311 311 312 312 313 313 313 313 314 314 314 314 314 316 318 323 325 324 322 321 319 317 319 322 324 324 325 326 333 345 352 352 353 355 357 357 357 358 358 355 354 352 349 346 344 343 341 341 342 339 341 347 349 350 351 352 351 351 352 353 353 353 353 353 353 353 353 353 353
310 309 309 308 308 308 308 308 308 308 308 308 308 308 309 309 309 309 310 310 311 311 312 313 313 313 313 313 314 314 313 315 317 322 326 325 322 319 320 319 318 320 322 323 325 326 325 327 342 351 350 350 351 353 353 353 353 353 355 356 351 346 345 345 344 343 342 340 340 342 346 350 350 351 351 351 352 353 352 352 352 353 353 353 353 354 354 354
311 311 310 310 309 309 308 308 308 308 308 309 309 308 309 309 309 309 309 310 310 311 312 313 313 312 313 313 313 313 313 316 321 325 326 324 321 319 319 319 320 322 322 324 326 326 326 327 340 349 348 348 349 348 348 350 350 348 350 352 348 345 345 345 343 344 342 340 341 342 347 350 350 350 350 351 353 353 352 351 350 350 351 353 354 353 353 354
312 312 312 311 311 311 309 309 309 309 309 309 309 309 309 310 309 309 309 309 310 310 312 312 313 312 313 313 312 313 314 317 321 323 325 324 323 320 319 320 322 324 324 325 325 326 330 332 340 347 346 345 346 347 346 347 348 347 347 345 345 344 344 344 343 343 342 340 340 342 346 349 348 349 350 350 351 349 349 350 350 348 348 350 353 353 353 354
312 312 312 312 312 312 312 311 310 310 310 310 310 310 310 310 310 310 310 309 309 310 311 312 313 312 312 312 312 313 313 317 320 320 322 323 323 320 319 320 323 326 325 325 325 326 332 337 342 345 344 343 344 345 345 345 346 347 347 343 343 342 341 343 342 342 341 340 340 342 345 346 347 348 350 349 348 348 350 351 350 350 350 351 353 353 353 353
312 312 312 313 313 313 313 313 312 312 312 311 311 311 310 311 311 311 311 310 310 310 311 312 312 312 312 312 312 312 314 318 321 320 320 322 323 320 318 321 324 327 325 324 326 325 331 340 342 342 341 342 343 343 344 345 345 345 346 344 343 341 340 340 339 340 340 340 340 341 342 344 345 347 349 349 348 350 352 352 351 352 352 352 352 353 353 353
311 312 312 312 312 313 313 314 314 313 313 313 312 312 312 311 311 311 311 311 311 310 310 312 312 312 312 311 311 313 317 319 321 320 320 321 322 322 320 322 325 326 326 325 326 325 329 336 339 340 339 338 339 340 340 344 345 344 345 343 340 339 338 337 337 338 339 340 340 339 340 341 342 345 348 347 348 351 352 352 352 353 353 353 353 353 354 353
312 312 312 312 312 313 313 314 314 314 314 314 313 313 313 312 312 311 311 312 311 310 310 311 311 311 311 311 312 315 319 320 321 322 322 321 321 322 322 322 323 324 324 324 325 326 327 329 331 335 335 333 335 336 336 340 340 338 339 338 337 336 335 334 335 338 339 340 341 340 339 337 339 346 349 347 349 351 352 353 353 353 353 353 354 354 354 354
312 312 312 313 313 313 313 314 314 314 315 315 315 315 314 313 312 311 312 312 312 311 311 311 311 310 311 311 313 317 320 320 321 323 324 322 321 321 322 323 323 323 323 322 322 323 323 323 324 328 330 330 333 334 334 336 336 333 333 330 329 329 328 329 333 337 340 341 341 341 338 337 340 344 348 349 351 351 352 353 353 353 354 353 354 354 354 354
311 312 312 312 313 313 314 314 315 315 315 315 316 316 315 313 312 312 312 312 313 312 311 311 310 310 310 310 312 318 320 320 320 322 323 324 322 321 322 322 323 323 323 323 323 322 322 321 322 326 330 331 331 333 333 333 331 329 327 326 326 326 326 327 332 338 340 342 342 339 339 341 344 343 347 351 351 352 352 353 353 353 353 353 353 354 354 354
310 310 311 311 312 313 313 314 315 315 316 316 317 317 314 312 311 311 312 313 313 312 312 310 310 310 310 311 314 318 319 320 320 321 322 322 322 323 322 322 322 322 323 324 324 324 323 321 321 324 327 331 333 333 333 331 326 326 325 325 326 326 327 327 331 338 340 342 342 338 338 341 344 345 348 352 351 352 353 353 353 353 353 353 353 353 354 354
309 309 310 310 311 311 312 313 314 315 316 317 318 316 312 311 312 312 313 313 313 313 311 310 310 309 310 312 316 317 317 318 319 320 321 321 321 323 324 324 323 322 322 323 324 324 324 321 321 323 325 329 332 333 332 330 326 327 325 325 326 322 325 327 329 338 341 340 342 340 337 339 345 348 350 352 351 352 352 353 353 353 353 353 353 353 353 354
308 308 308 309 309 310 311 312 313 315 316 317 317 313 311 313 315 315 316 316 316 315 312 311 310 310 312 314 314 316 317 317 318 320 321 320 321 322 325 327 326 324 324 324 324 324 323 322 323 327 328 327 329 330 330 327 326 326 322 323 327 322 325 327 327 337 342 340 340 340 339 341 347 349 351 352 351 352 352 352 353 352 353 352 353 354 353 354
309 308 308 308 308 309 310 310 312 314 316 317 315 311 314 317 318 317 319 320 320 319 316 313 311 312 316 316 315 318 319 319 320 320 321 321 320 321 325 328 328 326 325 324 324 324 323 324 326 328 329 328 328 328 327 324 324 327 323 321 324 322 323 326 327 334 339 341 340 340 343 347 350 349 350 352 351 351 352 352 352 352 352 352 352 353 353 353
309 308 308 308 308 308 309 309 310 313 316 316 312 312 316 318 318 319 321 319 320 320 316 316 317 316 318 319 318 319 320 320 321 323 325 323 322 321 323 327 328 327 326 326 325 325 325 325 326 328 328 328 328 327 325 322 321 325 324 321 323 323 321 324 327 331 337 342 341 341 345 349 350 349 350 351 351 351 351 351 352 352 352 352 352 352 353 353
308 308 308 309 309 309 309 308 309 312 316 315 311 313 316 316 317 321 323 319 317 320 318 320 321 318 319 320 318 319 321 321 323 324 326 326 325 323 321 325 329 328 327 328 328 327 326 324 326 327 328 327 327 326 324 322 322 321 322 321 322 323 322 323 326 330 338 343 341 341 343 346 349 349 349 351 351 351 351 351 351 352 351 351 351 352 353 353
306 306 307 308 309 309 310 309 308 310 314 314 312 314 315 314 317 321 323 318 315 318 322 323 321 318 319 320 318 319 320 321 324 324 325 326 327 325 321 324 328 327 326 327 327 325 324 324 324 324 325 326 327 326 324 324 323 323 323 322 321 321 322 324 325 329 339 342 342 342 341 345 349 349 349 350 350 350 350 351 351 351 351 351 351 351 352 352
305 305 306 306 308 309 310 310 309 309 312 313 312 314 314 313 315 317 316 315 315 316 318 320 319 319 320 320 319 321 320 321 323 325 326 327 328 326 322 323 325 325 324 325 325 323 323 324 323 323 324 326 327 326 325 325 324 324 324 323 322 321 322 325 326 329 337 341 341 342 341 344 349 349 349 349 350 350 350 350 350 350 350 350 351 351 351 352
304 304 305 305 306 308 309 310 309 310 311 311 312 313 312 310 312 313 311 313 315 315 315 316 317 317 318 319 319 319 320 321 322 324 327 327 329 326 323 323 324 324 323 323 323 323 323 323 322 323 326 328 328 327 326 324 324 324 323 322 321 321 322 324 326 327 335 340 341 342 342 343 349 349 349 349 349 349 349 350 350 350 350 350 350 350 351 351
303 304 304 304 305 306 308 309 309 311 310 310 311 312 310 309 310 310 309 311 313 313 314 315 315 315 316 318 318 318 318 320 321 323 326 327 328 326 323 323 323 324 323 322 323 324 323 322 322 324 326 327 327 327 326 324 325 324 323 321 320 321 323 323 327 327 332 338 341 343 341 342 347 348 348 349 349 348 349 349 349 350 349 349 350 349 350 351
303 303 303 303 304 304 306 307 309 311 310 309 312 311 309 309 309 310 311 312 313 313 314 314 315 315 315 317 317 317 318 319 319 321 325 326 326 325 323 322 323 323 322 322 323 323 321 322 323 323 325 326 326 326 325 324 324 323 323 321 319 322 321 321 325 327 330 336 341 342 341 341 344 347 349 348 349 349 348 349 349 350 349 349 349 349 349 350
302 302 303 303 303 304 304 306 309 311 309 310 311 310 309 309 309 310 311 312 313 313 314 316 315 315 316 317 316 317 319 318 318 321 324 325 324 323 322 322 323 323 323 322 322 322 322 323 323 324 326 326 325 325 325 324 323 323 323 321 321 323 322 322 325 327 329 332 340 342 338 340 343 344 348 348 348 348 347 348 348 348 349 348 348 349 348 349
302 302 302 303 303 303 304 305 309 310 308 311 311 309 310 310 309 310 311 314 316 314 315 316 315 315 316 316 316 317 318 317 318 320 323 325 325 323 322 323 323 323 323 322 322 322 322 323 323 324 325 325 325 325 324 323 322 322 323 322 323 323 324 324 324 325 323 324 337 340 332 337 343 342 346 347 347 347 345 346 347 347 348 347 347 348 348 348
302 302 302 302 302 303 303 304 306 307 307 310 310 309 310 310 309 311 312 315 319 317 316 317 317 317 317 315 315 316 317 317 318 319 320 323 326 324 323 323 323 323 323 323 323 323 322 323 324 325 325 324 324 324 324 324 321 320 322 323 323 323 323 323 323 323 321 323 335 337 333 336 340 338 343 345 346 347 345 344 346 346 347 346 346 347 348 348
301 302 302 302 302 302 303 303 304 305 306 308 308 309 310 310 309 311 313 318 322 320 317 317 317 318 318 315 315 316 317 317 317 318 318 321 325 325 324 324 323 323 323 323 322 323 325 324 324 325 325 324 323 323 324 324 320 320 323 324 324 324 323 322 322 322 323 327 328 331 336 335 334 337 339 342 345 346 345 344 344 344 345 345 345 346 347 347
301 302 301 302 302 302 302 302 303 304 306 306 307 308 309 309 310 312 315 320 325 323 319 317 316 317 317 316 316 317 317 318 317 318 317 320 324 324 324 324 323 323 324 323 320 323 326 325 324 325 324 324 323 323 324 324 322 322 323 324 324 324 323 323 323 322 324 324 319 325 331 328 336 350 342 339 343 343 344 343 343 343 343 344 345 344 346 347
301 301 301 302 302 302 302 302 303 303 304 305 306 308 309 309 311 314 318 321 323 322 321 318 317 317 315 315 315 316 317 317 318 318 317 319 323 324 323 323 322 323 324 323 322 325 327 326 325 324 324 324 323 324 325 323 323 323 323 324 323 323 324 322 324 322 322 321 317 321 325 321 333 351 344 338 341 340 342 342 341 342 341 343 344 343 345 346
301 301 301 301 302 302 302 302 304 304 304 304 306 308 308 310 314 316 320 322 320 320 321 319 318 316 314 314 314 315 315 317 318 317 317 318 321 322 323 323 323 323 323 323 323 324 325 325 326 326 325 325 325 324 323 322 323 323 322 322 322 322 324 323 326 325 319 319 319 319 323 322 324 335 341 339 340 339 341 341 340 340 340 341 343 343 343 344
301 301 301 301 302 302 302 305 307 307 304 304 306 308 309 313 317 319 321 320 319 322 321 318 317 316 316 315 315 315 315 316 317 317 317 318 320 321 322 324 323 323 323 323 323 323 324 325 326 326 326 326 326 324 322 322 322 322 322 321 320 320 321 319 321 322 316 316 322 322 324 323 319 328 341 340 340 341 340 340 340 339 339 340 341 342 343 343
301 301 301 302 301 303 305 307 309 309 306 305 306 309 311 313 315 317 319 318 320 321 319 317 316 316 317 317 317 317 316 316 317 317 317 318 319 320 321 324 323 321 320 320 321 322 323 324 325 326 326 326 325 324 324 322 321 322 321 320 318 316 317 317 316 318 318 319 328 327 322 322 321 330 344 342 340 341 340 340 340 339 339 339 340 341 342 342
301 301 301 301 302 305 307 307 307 309 308 307 308 311 314 316 316 315 315 317 319 318 316 316 316 316 317 318 319 319 316 316 317 317 318 318 320 321 321 323 323 323 322 320 319 319 320 323 324 324 325 325 325 324 322 321 321 321 319 318 317 314 316 316 316 318 319 321 327 326 323 323 324 333 344 343 340 340 339 340 340 339 339 338 339 340 340 342
301 301 302 301 303 307 308 306 306 307 310 311 311 313 314 316 318 317 314 315 316 316 315 315 315 317 318 319 320 320 317 316 317 318 319 319 320 321 321 322 322 324 326 322 319 318 318 320 323 323 324 325 325 325 323 324 323 320 321 320 316 317 319 317 317 319 320 321 323 323 325 326 326 336 345 340 338 339 339 340 341 340 340 339 339 339 340 341
301 301 302 301 304 307 307 304 304 306 311 312 313 314 313 313 316 317 315 315 315 315 315 315 316 317 318 319 320 319 317 318 318 317 319 319 319 320 321 321 321 323 324 320 319 319 317 319 324 323 324 325 325 326 325 325 323 320 322 319 315 321 324 320 323 327 324 322 322 322 329 335 336 341 345 338 338 340 339 340 340 340 341 340 339 340 339 340
301 300 301 303 306 307 305 303 304 305 310 313 313 313 313 312 314 315 315 315 314 314 315 316 318 317 318 320 319 318 316 318 318 317 317 318 319 321 321 321 322 321 322 321 321 320 317 318 325 323 323 326 325 326 325 323 324 322 318 317 319 323 321 317 321 325 320 318 321 323 326 331 333 334 337 336 338 341 340 341 340 339 341 340 340 340 340 340
301 301 301 304 306 305 303 304 305 306 310 312 313 314 312 312 314 314 314 314 314 315 316 317 318 317 317 318 317 316 316 317 317 316 316 317 318 320 321 321 322 321 322 322 322 323 320 319 325 324 323 325 323 324 325 324 325 322 317 318 321 321 321 321 318 317 316 316 322 324 320 321 325 333 342 341 338 340 341 341 341 340 340 339 341 341 340 341
303 302 302 305 305 303 303 304 305 308 311 313 314 316 315 314 314 314 314 313 314 315 315 316 317 317 316 317 316 316 316 317 317 316 317 318 318 319 320 320 320 321 321 321 322 325 322 318 324 326 323 324 324 323 323 324 324 323 321 321 322 318 316 320 319 316 315 314 317 321 322 322 324 332 341 339 339 342 341 341 342 341 340 339 340 342 341 341
303 302 303 304 303 303 304 304 306 310 313 314 314 315 316 315 314 314 314 314 315 316 316 316 316 316 316 316 316 316 316 317 317 316 317 318 318 318 318 318 320 320 320 320 322 324 323 318 320 325 324 323 325 323 320 322 323 324 323 321 322 321 317 318 319 317 317 317 317 316 317 321 327 335 340 340 343 344 339 341 343 340 340 339 339 342 342 342
303 303 304 303 303 304 304 305 308 312 314 316 315 314 314 314 314 314 314 315 315 316 316 316 316 316 316 316 315 315 316 317 317 317 317 317 317 316 315 315 317 319 319 319 321 322 324 320 318 323 325 321 322 323 322 322 323 323 320 318 318 320 319 318 319 319 320 324 325 319 313 320 335 343 343 342 346 345 340 340 342 340 339 340 340 341 342 342
303 304 304 302 303 304 305 307 310 312 313 314 314 314 314 314 314 315 315 316 315 315 315 315 315 315 315 314 314 315 316 316 317 317 317 317 317 316 315 314 315 318 319 320 321 320 321 321 318 319 320 318 321 325 325 324 325 323 321 320 318 318 319 316 317 321 321 322 328 324 312 317 336 342 340 342 346 346 343 339 339 339 338 339 341 341 341 343
303 304 303 302 303 304 306 309 310 309 309 310 310 311 311 312 312 312 314 314 313 313 314 314 314 314 313 314 315 315 316 317 317 317 317 317 317 315 314 314 315 318 319 320 323 323 323 324 320 317 319 321 323 326 326 324 326 326 324 324 322 321 320 314 315 321 320 318 326 325 316 321 341 345 339 342 344 339 337 337 338 338 337 339 341 341 342 342
303 304 303 302 304 305 306 308 309 308 307 307 307 308 309 310 310 310 310 310 310 311 312 312 312 313 314 315 315 315 316 317 317 317 318 317 316 314 313 313 314 318 321 324 327 327 326 324 319 317 320 323 323 324 325 325 326 324 324 325 323 322 320 319 324 327 321 317 321 321 315 320 342 353 343 339 341 334 330 332 336 336 336 339 340 340 342 341
303 303 303 303 304 305 307 308 307 306 306 306 307 307 308 309 309 309 309 309 310 310 311 312 312 313 313 314 314 314 316 318 317 316 316 316 315 314 312 313 314 317 322 326 328 325 324 325 320 317 318 320 321 321 321 322 324 324 325 326 324 324 322 322 328 326 320 319 320 318 315 321 346 360 347 338 343 345 339 333 333 335 337 338 339 340 341 341
303 303 303 303 304 305 306 306 306 305 306 306 306 307 307 308 308 308 308 309 309 309 309 310 311 311 312 313 313 313 314 316 316 315 313 313 314 313 312 312 313 315 320 325 324 321 323 325 322 318 318 317 318 319 322 323 321 322 326 325 324 327 322 320 323 320 319 323 320 318 320 329 346 349 337 336 342 344 341 332 329 334 335 336 339 340 340 341
303 303 303 303 304 304 305 305 305 305 306 306 306 306 306 307 308 308 308 309 309 309 309 309 310 311 312 312 312 312 312 313 313 313 313 313 313 312 312 312 312 315 320 322 320 320 324 328 326 323 322 320 318 323 332 332 322 319 323 324 324 326 323 323 322 318 324 326 320 325 333 327 329 338 335 338 337 330 333 333 331 334 334 334 338 338 340 342
303 303 303 304 304 304 304 305 305 305 306 306 306 306 306 306 307 308 309 309 309 308 308 309 310 311 311 311 311 311 312 312 311 312 312 312 312 311 311 312 313 316 318 317 316 319 323 325 325 325 325 323 321 324 330 330 322 319 323 322 323 326 324 323 320 320 330 324 315 334 350 327 325 345 343 338 337 331 329 331 330 332 332 333 336 336 338 340
303 303 303 304 304 304 304 304 304 305 305 305 305 305 305 306 307 308 308 308 308 308 308 309 310 310 310 310 310 311 311 311 312 312 312 311 311 311 311 311 313 315 314 313 314 317 320 322 324 324 324 323 323 323 324 326 325 322 324 323 323 326 323 321 322 324 331 324 315 335 351 331 329 345 341 337 340 333 328 326 325 327 329 330 333 335 338 339
303 303 304 304 304 304 304 304 305 305 304 304 305 305 305 306 307 307 307 307 307 308 308 309 309 309 309 308 310 312 311 311 312 312 311 311 312 311 311 312 313 313 312 312 314 315 319 325 325 322 322 322 323 324 323 323 324 323 324 324 323 325 323 322 324 324 326 325 322 333 343 335 331 336 335 335 333 327 325 326 326 327 327 330 334 336 338 340
303 303 304 304 304 304 304 304 305 305 304 305 306 305 305 306 306 306 307 306 306 307 308 308 308 308 308 308 309 310 310 311 311 311 311 311 311 311 311 313 312 311 311 312 314 315 319 324 323 320 323 323 323 324 323 322 324 322 323 325 323 324 325 322 323 325 325 325 325 330 335 334 332 335 336 328 324 327 334 333 330 331 330 332 337 338 339 342
303 303 303 303 303 304 304 304 304 304 304 304 306 306 305 306 306 306 306 307 307 307 307 308 308 308 307 308 308 308 309 310 310 310 310 311 311 311 311 312 311 310 311 312 314 315 317 322 322 321 323 324 322 323 323 321 322 320 320 324 323 322 323 323 323 325 324 323 326 326 326 330 333 334 335 330 328 338 348 339 330 333 335 333 336 339 341 342
303 303 303 303 303 304 304 304 304 304 304 304 305 305 305 305 305 306 306 307 307 307 307 307 308 308 308 308 308 308 309 309 310 310 310 310 310 310 310 310 310 310 311 312 314 316 317 320 321 321 324 325 322 322 323 322 320 319 319 323 324 323 324 323 325 327 326 325 325 322 322 328 331 329 330 332 334 339 343 335 330 335 338 337 336 338 341 343
Wind_Speed
15 15 15 15 15 15 15 15 15 16 15 16 16 16 16 16 17 17 17 18 18 18 19 19 18 17 17 18 19 19 20 20 20 21 26 22 15 16 16 13 12 14 18 18 15 19 27 29 27 26 25 22 18 16 18 18 14 10 3 3 5 4 4 3 3 3 5 6 7 14 22 19 13 13 15 15 15 24 21 10 16 9 6 19 15 27 35 29
17 16 16 16 16 16 16 16 16 16 16 16 16 17 17 17 17 17 18 18 18 19 18 18 18 17 17 17 18 19 20 20 22 25 22 12 9 15 17 17 16 17 20 22 20 21 28 32 31 27 25 20 15 15 14 13 15 11 2 2 5 4 5 4 3 3 0 8 8 12 25 24 18 20 21 13 12 19 14 11 15 13 16 19 21 33 32 29
18 18 18 17 17 17 17 17 18 18 18 17 17 17 17 18 18 18 18 19 19 19 19 19 17 17 16 17 17 18 19 20 24 22 11 4 6 12 16 21 24 24 24 23 21 19 21 27 30 27 23 16 15 15 12 11 12 13 7 3 7 7 6 11 9 8 2 9 8 10 20 21 22 26 22 15 14 14 12 15 17 18 24 25 31 35 31 32
18 18 18 18 18 18 18 18 18 19 19 19 18 18 18 18 18 18 18 19 19 20 20 19 17 16 16 16 16 17 18 18 18 9 1 3 4 7 13 22 29 29 25 21 18 17 16 20 28 27 19 12 14 13 11 13 9 9 10 6 7 3 4 16 17 13 7 7 10 16 17 14 23 26 22 21 14 6 12 25 28 28 32 34 37 35 34 34
19 19 19 19 19 19 19 18 18 18 19 19 19 19 19 19 18 18 18 19 19 20 20 20 18 16 16 16 15 15 13 10 5 1 1 3 4 3 10 24 32 30 24 19 17 17 16 20 28 25 15 9 9 9 12 19 13 5 11 14 12 4 4 17 19 17 14 8 11 17 17 16 23 21 25 28 14 11 22 32 34 35 39 40 41 39 37 35
20 20 20 20 20 20 20 20 20 19 19 20 20 20 20 20 19 18 18 18 19 20 20 20 18 16 16 16 15 14 7 4 6 4 4 1 6 6 6 25 32 27 20 17 17 20 18 21 25 21 13 7 8 9 11 18 17 8 9 12 16 12 10 21 20 18 17 9 10 13 19 24 21 15 28 33 20 25 34 35 34 35 40 42 43 41 39 38
20 20 20 20 20 20 20 20 21 21 21 21 21 21 21 20 20 19 19 18 19 19 19 20 18 16 16 15 15 13 10 15 14 9 9 3 4 4 8 24 28 23 19 17 19 21 21 22 25 21 12 6 7 12 14 13 16 13 8 7 15 18 17 26 25 21 20 14 15 17 20 23 20 14 25 28 18 25 31 33 35 35 40 42 42 42 41 40
21 21 21 21 21 21 21 21 21 21 21 21 22 22 21 21 20 19 18 18 19 19 20 19 18 17 15 14 14 12 15 20 13 4 13 11 5 4 12 22 24 21 19 18 20 20 21 23 25 20 10 8 8 8 12 10 11 13 10 10 14 18 21 27 27 24 23 21 18 18 18 22 26 20 22 22 14 22 31 33 35 37 40 42 43 43 41 40
21 22 22 22 22 22 22 22 21 21 21 21 22 22 22 21 20 20 19 19 18 18 20 19 17 17 15 14 11 10 16 15 7 2 12 14 11 10 14 21 21 21 19 18 19 20 22 24 25 21 9 9 10 7 8 7 6 10 13 15 14 17 24 26 23 23 24 21 16 14 14 21 26 18 14 17 19 27 33 35 36 39 41 41 43 43 42 42
21 21 22 22 22 23 23 23 22 22 22 22 22 22 21 21 21 20 20 19 18 18 19 18 17 16 15 13 6 6 14 10 3 2 7 11 12 13 17 19 19 20 19 19 21 23 24 23 25 24 12 8 10 11 10 8 7 9 15 17 17 21 26 25 20 22 24 18 16 14 9 14 22 16 6 13 26 32 35 37 38 41 42 42 42 42 42 42
21 21 22 22 22 23 23 23 23 23 23 23 23 23 21 21 21 20 20 20 19 18 18 18 17 16 16 13 10 11 15 14 8 3 6 6 7 12 19 20 19 19 18 18 20 21 21 21 22 20 13 9 9 10 11 14 13 13 15 12 15 19 21 21 16 19 19 11 17 16 6 9 18 13 10 22 33 36 38 38 39 41 41 40 40 40 41 41
22 22 22 23 23 23 22 23 23 23 23 24 24 23 22 21 21 20 20 20 19 18 18 18 16 16 15 16 24 22 13 12 11 8 6 5 5 8 15 21 21 19 18 17 17 17 16 19 21 19 12 8 6 6 9 15 13 13 11 7 11 11 11 15 11 16 16 9 18 15 6 6 11 9 18 33 38 39 41 39 39 39 38 38 39 39 39 39
23 23 23 24 24 23 23 23 23 22 23 24 23 22 22 21 20 20 19 18 18 18 18 17 16 16 13 18 29 27 17 15 17 16 13 10 10 9 11 19 23 22 19 17 16 15 15 17 21 24 20 10 4 6 10 13 11 9 6 3 6 6 7 10 7 16 16 12 21 17 2 7 7 9 25 37 39 39 36 36 38 37 36 37 37 38 39 39
25 25 25 25 25 25 24 24 24 23 22 23 22 21 21 21 19 17 16 16 16 17 17 16 15 13 14 22 29 27 23 23 24 25 22 18 16 14 13 16 21 24 23 20 18 16 15 17 20 22 22 18 13 12 12 11 7 4 3 2 3 3 7 8 2 12 13 14 26 18 4 8 5 9 27 36 41 40 34 34 37 36 36 37 37 38 39 40
26 27 27 27 27 26 25 25 25 24 22 22 21 19 19 18 15 13 12 12 12 14 15 14 13 11 13 24 28 22 20 22 24 23 23 23 21 20 18 17 19 22 23 23 21 19 16 18 21 16 14 18 16 11 7 5 3 1 2 4 2 3 6 8 4 10 12 12 24 17 4 6 4 11 29 35 40 40 35 34 36 36 37 36 37 38 40 40
26 26 27 28 28 27 27 26 26 25 23 22 20 17 16 13 11 10 9 7 6 8 9 10 12 10 8 15 16 13 16 18 18 15 17 22 25 25 22 20 19 19 21 22 21 21 17 15 18 16 12 9 7 4 4 5 4 1 3 4 4 4 4 6 6 9 15 9 16 16 5 3 3 13 28 34 38 37 33 34 36 37 38 37 37 38 39 39
27 27 27 27 27 28 28 26 27 25 23 22 20 14 12 11 9 6 3 5 7 4 4 5 6 7 11 14 11 10 12 10 9 9 12 17 24 27 24 23 22 21 21 21 22 21 17 14 13 11 10 6 4 5 3 6 6 3 2 3 5 5 4 4 6 5 12 10 12 14 6 4 6 16 27 32 36 34 30 33 35 37 38 37 37 37 39 39
29 29 29 28 27 28 27 26 27 25 23 21 18 14 10 8 7 4 2 6 10 5 3 5 7 2 11 16 14 13 10 5 5 7 9 10 17 25 27 25 24 22 18 16 18 18 16 13 9 4 5 6 4 6 6 6 5 3 4 3 4 5 5 6 5 4 7 11 12 12 6 5 8 15 25 31 35 33 31 34 36 36 38 37 36 37 39 41
30 30 30 29 28 27 27 27 26 27 24 18 15 12 8 8 8 4 5 11 11 5 5 7 11 5 8 10 11 11 10 8 8 10 12 10 12 22 28 26 24 21 12 6 8 13 13 7 6 7 6 7 6 7 9 5 3 5 6 4 4 5 6 6 5 4 6 9 11 12 10 8 11 15 20 28 33 30 28 31 32 33 35 36 36 37 39 42
31 31 30 30 29 28 27 26 27 28 23 16 14 11 7 11 7 4 14 25 21 15 17 17 20 21 23 22 18 14 13 13 12 12 12 10 12 21 27 25 20 16 9 5 6 10 13 6 6 9 6 7 7 7 8 6 6 7 4 5 6 5 8 7 4 5 5 7 9 12 12 10 15 18 18 26 29 23 22 25 27 30 32 35 36 37 40 43
32 32 31 31 29 29 27 26 28 25 20 18 16 10 11 14 7 7 23 29 24 18 22 26 27 32 36 35 30 23 17 15 16 16 13 10 13 18 23 21 11 8 8 9 7 6 10 9 9 9 6 7 7 6 7 7 8 8 6 6 6 5 9 10 3 3 3 5 8 8 8 9 15 18 18 24 23 20 24 26 27 32 33 35 38 39 42 44
33 32 33 32 30 30 26 27 28 19 17 18 11 10 13 14 9 10 16 18 25 26 26 31 32 38 42 39 37 30 19 13 17 22 16 14 18 17 19 18 8 6 7 7 6 4 6 10 10 8 6 6 6 6 7 7 7 7 6 5 7 7 7 10 5 4 4 4 5 7 8 10 14 17 18 22 22 24 33 35 35 38 35 35 39 40 42 41
32 32 34 33 33 31 26 28 23 12 18 16 5 10 15 14 12 14 12 12 25 28 27 31 34 40 43 39 35 28 20 15 18 24 21 18 23 23 19 14 10 8 7 7 8 7 6 8 8 8 7 7 7 6 6 5 5 6 5 4 8 8 3 5 5 2 4 4 5 7 7 6 8 10 13 22 28 28 33 37 37 40 41 42 45 45 44 42
31 31 32 33 34 32 28 27 15 9 20 13 2 9 15 14 13 16 14 9 14 17 21 27 29 36 39 32 25 24 26 22 19 24 24 22 22 22 19 16 12 8 8 10 12 11 8 5 8 10 8 9 9 8 7 6 6 6 7 7 8 10 7 6 5 5 3 4 2 5 2 1 6 10 10 17 23 21 25 29 29 34 40 43 45 46 46 47
29 29 30 32 33 33 30 22 11 15 21 7 2 10 13 14 12 14 12 6 7 9 12 15 19 26 28 21 17 23 24 21 26 30 27 25 25 17 13 17 13 8 12 12 10 11 11 7 10 11 8 10 11 10 9 7 5 7 9 10 11 12 9 6 3 6 4 6 3 6 3 4 6 13 14 12 14 15 18 21 25 32 36 37 39 42 45 47
27 27 28 30 32 33 31 22 16 23 21 5 6 13 13 12 10 10 6 2 5 5 2 4 9 10 11 16 20 19 10 14 31 37 28 24 28 21 10 11 9 9 13 9 5 6 7 8 9 10 11 11 11 10 10 8 5 7 7 8 9 11 11 7 1 2 3 5 5 3 4 4 5 11 14 13 15 18 16 17 23 30 33 35 38 40 43 45
25 25 27 28 30 33 32 27 24 25 18 11 14 16 12 10 8 6 2 2 4 4 4 4 6 3 5 17 27 19 3 6 17 31 34 25 26 25 12 7 7 8 9 6 4 5 7 11 10 11 11 10 10 10 9 10 7 8 4 4 7 10 12 9 4 4 5 4 6 4 3 3 4 9 14 15 17 17 15 16 20 26 33 37 39 41 44 46
25 23 25 26 28 31 32 31 27 22 17 18 21 17 11 9 7 2 2 2 3 2 3 3 3 2 6 19 32 20 2 6 7 19 38 30 22 22 12 9 10 8 10 9 7 5 8 12 13 13 11 8 9 9 9 11 8 8 4 5 7 9 11 6 5 5 4 2 7 6 4 3 5 6 11 14 16 16 17 20 19 24 34 38 40 42 45 48
28 23 24 25 26 27 30 30 28 23 19 21 20 15 10 7 4 2 2 2 3 1 1 3 2 3 10 17 25 18 3 3 1 9 30 30 23 17 8 11 11 7 11 12 9 5 6 14 18 14 11 9 8 8 9 11 9 8 6 6 6 7 7 4 6 5 3 3 9 9 5 5 6 4 7 10 12 15 17 19 19 25 36 40 41 44 45 47
31 25 25 28 27 27 29 29 26 21 20 20 18 12 8 4 1 3 3 4 3 3 1 3 2 4 10 10 10 13 6 4 4 8 22 24 25 17 6 10 10 5 7 9 11 8 3 11 17 12 10 11 8 8 10 12 12 7 4 4 6 6 5 2 3 4 2 4 9 12 9 7 6 5 7 10 13 16 16 15 17 22 31 38 42 45 46 47
33 28 27 30 31 30 29 26 20 16 16 18 16 11 5 2 2 3 6 3 3 3 1 4 6 6 3 3 3 6 6 6 2 8 12 12 15 12 4 7 8 4 4 6 10 10 6 7 7 7 13 15 9 9 10 10 12 8 4 5 4 5 4 4 1 3 5 7 7 11 9 9 9 6 6 11 16 21 19 17 19 20 27 38 44 46 47 48
34 30 27 31 32 25 21 19 17 13 11 12 11 7 1 0 1 4 4 4 3 1 4 4 5 7 5 4 2 5 4 4 2 5 9 9 9 10 8 7 7 6 6 8 7 6 8 8 5 5 13 16 10 7 8 7 9 8 5 6 4 3 3 5 5 3 5 7 6 8 8 7 9 7 8 12 16 20 20 21 24 25 31 40 45 47 47 48
34 31 28 31 28 16 11 17 19 12 7 6 5 2 3 2 4 5 5 4 1 3 6 5 7 9 6 4 3 5 5 4 4 3 8 12 9 11 12 9 8 8 5 7 7 4 3 5 7 7 8 12 12 8 7 6 7 9 7 6 6 5 5 6 5 3 4 6 6 6 7 4 5 5 11 14 16 21 25 29 33 35 39 45 49 51 48 46
34 32 29 30 21 9 10 19 22 16 7 3 2 2 3 4 5 2 5 6 4 5 7 7 10 8 4 3 4 4 3 5 6 3 4 9 9 9 11 10 10 7 3 4 5 6 6 6 9 12 7 10 13 10 9 7 6 9 7 7 7 6 5 4 3 3 5 5 5 3 4 5 5 6 11 14 17 25 32 37 40 39 43 47 48 46 44 45
33 29 29 30 17 6 15 25 25 17 7 3 1 3 5 5 2 1 2 3 5 6 9 10 7 4 2 3 4 2 3 3 6 6 5 7 9 9 10 11 12 7 4 4 3 5 9 8 6 10 9 10 12 10 9 8 5 7 6 6 8 7 5 3 4 6 4 3 4 3 4 5 4 5 8 13 16 21 27 33 34 33 36 38 36 36 39 45
32 28 30 27 11 8 22 28 24 16 6 3 1 4 5 3 1 1 1 3 3 7 11 8 3 3 3 3 3 7 9 6 2 3 4 6 7 10 9 7 11 12 8 6 4 3 7 7 3 4 6 10 13 11 11 11 6 3 5 7 7 7 8 7 4 2 2 4 5 2 3 4 3 5 6 9 12 13 17 21 23 28 31 29 30 35 41 46
31 31 31 18 10 19 29 25 20 12 4 2 3 5 3 2 1 1 2 2 3 6 7 5 3 3 3 3 3 7 10 7 4 4 2 4 4 8 10 7 9 14 11 7 5 3 4 6 4 7 8 12 15 12 9 12 10 4 5 8 4 2 6 5 3 3 4 6 6 2 5 5 3 5 5 6 10 11 14 15 18 24 24 23 28 37 43 48
31 34 27 9 13 28 27 20 16 8 5 2 4 5 2 2 4 5 4 4 4 4 4 1 2 2 2 3 4 7 10 6 4 7 3 3 2 1 4 6 8 13 16 13 6 3 6 5 6 9 12 10 10 9 6 9 12 8 5 7 6 3 6 4 4 6 6 6 6 3 4 5 5 5 4 8 10 11 12 13 15 17 16 19 28 36 42 46
29 30 17 8 20 28 22 18 11 7 6 2 4 4 2 3 7 10 12 10 3 2 2 2 3 2 3 4 5 6 6 4 5 6 2 3 2 4 9 7 3 7 14 18 10 4 6 5 6 6 10 9 6 7 7 8 10 6 3 6 5 4 6 6 4 4 5 4 5 4 3 4 7 6 7 9 11 12 12 12 13 15 18 25 31 35 40 42
27 20 11 16 26 25 19 12 4 9 3 2 3 3 4 5 7 12 16 12 3 1 2 2 2 4 3 5 7 6 4 4 5 3 2 4 3 4 12 11 5 9 9 13 13 8 4 5 6 4 4 8 5 6 10 10 9 7 5 7 6 2 3 4 3 2 4 4 3 4 6 7 6 5 8 10 10 12 12 12 13 16 23 32 36 38 40 42
23 9 10 22 27 24 20 7 5 2 1 2 1 4 6 7 8 13 18 16 8 4 4 4 4 5 5 6 6 5 4 4 5 3 3 4 3 2 10 13 8 9 10 6 7 9 5 4 6 6 5 6 5 6 11 13 11 10 8 8 8 5 3 4 5 2 2 5 5 5 7 9 5 5 8 9 9 10 11 12 12 14 23 31 35 38 40 42
15 6 15 25 25 24 20 6 2 5 1 3 7 6 8 8 7 10 14 14 10 6 6 5 5 6 5 4 3 3 4 3 4 3 3 1 3 3 11 21 17 11 7 4 4 4 3 3 7 9 8 7 8 9 11 14 14 11 9 8 7 5 5 6 7 3 2 3 2 3 5 9 6 7 9 9 10 11 12 13 12 16 26 32 35 41 43 43
12 15 23 25 23 22 14 3 4 6 2 8 11 10 11 8 5 9 10 9 8 5 5 4 3 2 1 0 2 3 4 2 2 2 2 3 5 7 16 27 23 13 8 4 5 10 9 3 7 7 6 5 7 7 5 8 11 9 9 8 8 8 8 7 6 5 4 4 3 2 6 7 5 6 8 7 6 6 10 14 15 17 26 33 38 42 42 40
18 22 21 20 21 16 8 3 4 5 5 9 10 10 10 8 6 8 8 8 7 5 5 4 4 5 3 1 2 2 3 2 0 4 5 3 4 9 21 28 21 11 8 7 7 7 5 3 2 3 5 6 6 6 5 5 6 5 6 9 12 14 11 5 3 3 5 6 7 5 6 5 4 3 3 4 4 4 6 15 19 20 23 30 35 37 36 36
17 15 11 18 20 11 8 6 6 5 7 9 9 9 9 8 9 9 9 9 7 6 6 6 7 8 4 2 3 2 2 1 1 5 5 4 5 7 17 23 17 9 9 13 14 7 3 3 2 4 7 9 8 7 7 5 4 3 5 11 15 17 15 8 4 4 6 4 7 7 6 4 6 5 4 6 7 7 7 11 16 22 25 28 30 31 32 34
11 6 5 15 17 9 8 11 9 7 7 8 7 6 8 9 10 10 8 6 8 11 8 7 8 8 4 5 4 4 2 2 3 4 5 5 4 3 13 18 13 10 14 19 20 10 2 2 4 5 6 8 7 7 6 7 7 9 10 12 13 15 17 12 6 6 6 4 6 8 5 3 5 5 6 8 7 9 10 8 10 18 25 29 31 34 36 37
5 3 3 8 9 8 8 9 10 8 7 8 6 4 8 10 8 7 5 3 10 13 7 5 6 6 5 7 5 4 4 4 4 5 4 4 4 6 11 11 8 11 17 17 18 10 1 3 5 6 7 8 9 12 9 11 12 14 14 13 12 13 15 16 13 9 9 7 9 8 7 6 8 7 8 9 8 10 11 9 10 16 23 27 30 33 35 36
3 5 7 7 4 4 5 7 11 10 8 9 5 4 8 9 6 7 5 5 10 10 5 4 6 8 8 9 5 3 5 6 3 2 4 4 5 8 8 4 3 13 16 12 11 7 1 4 4 8 14 13 13 15 13 12 13 14 15 15 14 14 15 18 17 11 12 11 12 9 10 11 9 8 8 9 9 10 12 11 10 14 21 25 27 29 29 31
5 6 9 7 3 5 9 12 14 11 8 9 5 4 7 8 7 7 5 5 8 8 5 4 7 10 10 10 6 3 4 5 4 3 4 5 6 6 6 3 2 11 13 9 7 6 1 4 6 11 15 15 15 15 13 13 12 11 15 17 16 17 18 18 17 13 14 16 12 9 12 12 10 9 10 11 13 11 11 13 12 15 22 26 26 27 29 30
6 6 8 7 5 9 12 11 9 7 7 8 4 4 5 6 8 8 6 5 7 7 6 6 9 11 9 8 7 5 5 6 7 8 5 4 5 4 3 2 2 7 9 6 4 5 2 3 8 11 10 12 14 13 10 13 14 11 11 14 16 18 19 19 16 12 11 13 9 7 10 10 8 7 9 12 11 6 6 11 13 16 21 22 22 24 28 31
8 9 10 8 5 7 7 6 5 4 5 4 3 4 5 5 9 10 8 8 10 8 7 9 11 11 8 7 7 9 10 7 10 13 11 8 7 5 4 3 4 6 6 3 3 2 1 3 7 7 6 8 9 9 11 12 14 13 13 14 16 17 16 15 13 11 11 12 10 7 7 7 8 7 7 8 7 4 6 8 7 8 13 19 22 24 28 31
10 11 11 7 4 4 4 4 4 3 3 3 5 7 7 8 11 10 7 7 10 13 14 13 12 9 8 9 9 10 13 14 17 21 20 17 15 12 12 13 10 7 4 3 3 2 2 1 4 5 5 8 10 12 15 12 8 12 16 17 17 15 13 12 10 11 14 14 11 10 10 9 9 7 6 8 9 8 6 2 5 5 6 15 21 24 28 32
Wind_Direction
338 337 334 330 328 325 323 321 317 316 313 311 309 309 308 307 306 305 305 304 304 302 301 302 303 305 306 303 298 296 294 292 290 284 277 275 278 275 258 244 228 206 203 205 201 184 179 182 184 184 182 183 195 206 206 210 217 215 202 220 247 265 246 222 208 205 159 154 160 159 151 142 156 156 139 143 135 141 147 136 159 173 166 165 167 162 161 165
339 337 334 332 329 326 324 322 320 318 315 313 311 309 308 306 305 304 304 303 302 301 300 300 301 306 307 303 302 302 300 298 294 284 281 285 271 257 237 220 214 207 202 201 204 193 183 184 182 181 182 189 204 210 210 209 210 212 207 219 233 241 240 239 223 277 139 146 148 156 156 152 159 155 145 142 133 139 132 123 141 130 137 152 158 161 162 165
339 336 334 333 329 326 324 322 321 320 317 315 312 310 308 305 305 303 302 301 301 300 298 298 300 306 306 303 305 306 308 308 300 290 287 289 244 244 229 208 201 201 202 201 207 208 198 188 182 178 181 198 211 208 213 207 201 207 213 250 243 232 259 278 264 261 237 148 150 154 159 155 156 157 151 146 145 151 146 144 145 137 145 153 158 163 165 166
339 336 334 332 329 327 324 322 321 319 318 316 313 311 307 305 305 303 302 301 300 298 297 296 298 303 304 303 307 309 316 315 303 294 299 309 289 258 231 204 195 197 200 204 211 213 212 195 184 181 182 207 219 215 224 218 206 194 203 227 239 213 253 273 274 268 248 184 183 159 155 157 157 160 154 147 144 168 179 170 168 161 157 157 160 165 167 168
341 338 335 333 330 327 324 323 320 318 316 313 311 309 307 306 303 302 302 300 298 297 295 294 296 301 300 301 306 308 321 331 301 160 45 336 14 322 223 199 192 192 194 199 201 196 205 199 186 184 190 214 218 223 237 224 219 213 221 227 239 242 255 269 276 278 266 212 183 159 154 160 160 163 159 154 155 191 192 184 177 169 165 164 165 167 168 170
341 339 337 334 332 329 325 323 320 318 315 312 310 306 305 303 302 302 300 299 297 295 293 292 294 298 297 299 303 303 305 273 254 276 302 17 48 10 196 189 187 185 188 186 185 184 191 190 183 186 196 213 209 218 237 222 215 238 249 237 248 246 245 267 268 272 266 208 180 176 163 159 160 173 170 168 180 192 190 184 178 173 170 168 166 168 169 173
340 339 337 336 334 331 327 324 321 319 317 313 310 305 302 300 299 299 298 298 294 293 291 289 292 295 296 296 296 296 267 259 278 288 265 227 69 26 170 181 182 182 186 181 179 184 187 182 182 189 192 211 216 222 240 230 213 227 258 255 259 252 244 260 262 263 261 232 207 188 164 161 170 179 177 182 193 188 182 177 175 171 168 167 167 170 171 175
339 338 337 336 334 331 328 325 322 320 317 314 311 307 303 299 296 295 294 294 291 291 289 286 290 291 293 293 294 296 271 272 299 275 227 214 167 167 175 178 182 188 191 188 186 190 193 185 188 192 190 215 213 220 236 236 224 229 249 257 261 261 255 260 263 261 255 245 223 186 167 176 182 175 179 193 189 172 171 169 170 167 166 168 170 172 173 176
337 337 336 335 333 331 329 326 324 322 319 315 311 307 304 301 297 293 290 287 286 286 285 285 287 287 289 287 289 292 275 277 320 262 216 212 200 189 185 184 189 198 203 205 201 198 198 196 199 196 197 231 232 250 235 218 234 226 232 247 256 262 263 265 264 255 246 238 213 176 176 186 181 170 179 193 173 163 165 165 167 167 168 171 172 174 176 178
337 335 335 333 332 331 329 327 325 322 320 315 312 308 306 304 301 294 286 282 280 281 282 281 282 282 282 277 260 259 266 263 310 293 205 214 216 201 196 192 192 199 205 210 210 206 205 209 211 207 223 255 244 254 241 228 248 241 240 248 254 259 264 265 259 244 234 224 198 181 186 181 171 165 179 183 167 163 161 162 167 169 171 174 175 177 179 181
339 337 335 333 331 330 327 326 323 322 319 314 312 311 310 309 304 295 283 276 274 277 278 277 278 275 274 264 226 234 262 257 245 216 171 195 221 212 206 200 198 201 203 206 211 214 217 222 216 208 224 241 242 261 258 248 253 260 261 266 263 262 264 260 254 232 219 209 199 184 145 155 168 178 180 167 166 166 162 162 168 170 174 176 176 179 181 183
342 339 337 335 332 329 326 324 321 320 317 314 313 313 316 313 304 291 280 274 273 274 274 274 273 268 270 258 241 245 263 260 245 227 201 206 235 229 216 212 212 212 213 214 216 223 226 227 215 200 206 216 229 264 270 265 268 269 263 270 273 277 271 256 242 211 199 199 193 166 90 160 186 201 173 164 167 167 164 163 168 171 175 177 177 180 183 185
344 341 340 337 335 332 329 325 321 319 315 313 314 317 319 312 300 291 281 276 272 272 272 270 268 265 261 252 252 255 256 256 256 243 234 247 251 237 223 222 223 224 230 233 230 228 228 228 218 211 216 220 221 247 282 300 305 289 259 229 275 314 293 258 228 194 190 196 182 157 122 215 212 197 167 165 166 163 163 165 168 172 176 178 179 182 185 187
344 343 341 340 338 336 332 329 325 320 316 316 318 322 319 309 302 297 288 280 273 270 269 264 262 258 245 251 262 267 262 257 255 242 236 247 247 231 226 228 229 229 234 241 242 237 232 230 224 223 228 233 246 269 297 313 308 294 277 248 263 294 276 280 260 178 185 199 180 165 216 220 221 184 166 166 166 163 164 167 170 174 177 180 182 184 187 189
344 342 341 342 341 338 337 333 328 323 317 319 323 324 319 312 310 307 297 285 276 270 265 257 250 241 248 263 269 273 267 256 250 243 237 238 233 224 221 221 228 230 232 240 242 239 240 231 218 220 233 234 243 269 304 305 292 283 246 281 278 215 263 299 307 181 188 197 178 172 213 213 213 179 170 169 169 166 165 169 173 176 178 181 184 185 187 190
344 343 341 342 341 339 340 337 332 325 319 323 327 326 323 317 317 318 310 304 295 270 255 248 239 228 254 277 277 266 255 250 249 247 237 229 224 219 213 213 226 232 233 236 235 236 239 228 214 217 226 226 216 224 287 293 298 316 201 245 251 231 271 303 310 208 193 179 176 184 180 180 199 176 175 173 172 170 166 171 176 177 181 182 184 187 187 189
343 343 342 343 342 339 339 339 335 326 321 327 329 327 321 320 329 328 344 26 8 321 251 227 214 229 252 262 271 256 246 253 260 254 239 225 218 215 208 211 222 227 232 235 236 237 233 214 206 219 221 207 158 163 235 255 252 292 231 233 243 236 251 265 315 266 195 174 182 191 173 171 173 169 178 179 176 173 169 174 178 179 182 183 185 187 188 189
342 341 341 342 342 340 339 341 338 329 326 331 337 334 311 314 339 310 263 0 355 342 267 203 161 204 259 252 255 252 250 251 230 226 229 223 215 210 204 206 215 221 226 235 241 235 227 212 194 208 221 202 181 172 209 231 209 224 222 233 268 250 244 232 269 286 196 186 188 184 179 188 170 168 180 183 180 177 176 178 180 181 182 184 186 188 190 191
340 339 340 340 340 340 339 341 340 334 330 330 340 337 306 313 326 267 268 320 320 290 262 212 179 201 273 259 253 252 255 247 228 219 217 217 209 203 201 203 211 214 205 208 238 218 206 205 191 209 221 204 202 196 213 231 191 209 211 210 246 252 259 237 233 258 204 195 197 187 188 181 168 176 182 184 184 183 182 180 181 184 184 185 187 190 192 193
340 338 338 337 338 338 339 341 340 337 338 339 344 347 355 352 339 287 313 310 295 273 269 254 231 243 261 262 262 266 269 265 258 235 219 224 205 194 197 201 206 209 190 169 215 204 188 197 218 212 208 198 208 206 209 228 232 234 229 231 242 239 265 260 228 257 213 187 211 201 193 184 175 182 184 181 184 186 184 182 185 186 186 188 189 193 194 197
338 337 336 336 336 335 337 340 337 338 348 352 353 20 40 17 2 320 321 310 297 281 268 266 255 252 259 260 261 268 280 285 265 232 213 218 202 188 192 194 191 201 196 185 195 190 185 213 231 208 186 187 201 199 196 218 233 241 239 250 263 232 257 269 228 250 234 184 226 212 194 201 186 183 182 178 182 190 188 185 188 189 189 191 192 194 197 200
337 336 335 334 333 333 335 339 337 341 356 352 1 46 36 12 354 326 320 299 292 288 271 270 264 256 260 261 259 262 269 281 262 235 211 197 198 187 182 185 185 191 188 184 190 194 204 229 229 197 174 184 207 204 193 214 225 235 234 237 263 243 259 280 245 205 207 185 229 211 198 215 199 185 180 180 187 193 192 189 189 189 189 192 195 196 198 200
336 335 335 333 332 330 332 339 338 346 355 348 12 34 11 356 344 329 321 283 287 287 269 263 256 252 255 254 252 247 238 242 247 236 213 190 193 187 175 177 189 188 178 186 194 196 216 232 213 181 170 186 221 225 197 222 232 228 226 211 251 250 232 271 265 197 198 205 215 196 195 215 196 188 189 191 194 194 195 196 193 191 190 193 196 197 197 197
336 336 335 332 330 328 330 339 339 343 349 345 6 8 354 342 338 336 328 286 280 282 269 264 252 249 250 247 242 222 215 224 229 226 210 187 183 182 181 181 180 185 191 194 199 209 229 227 179 172 180 189 215 232 206 221 243 237 231 215 242 253 223 226 287 356 329 274 222 142 137 269 176 186 202 201 200 200 198 199 200 200 198 197 197 198 198 197
336 337 335 331 328 326 329 337 336 337 345 347 301 336 337 332 336 344 337 293 277 278 276 268 242 243 244 235 226 208 208 225 226 221 210 195 186 176 182 185 177 193 199 189 197 220 236 216 169 176 195 196 210 229 213 205 236 254 242 223 233 254 248 237 311 357 338 300 276 141 157 270 199 192 202 197 199 207 200 199 204 206 204 203 201 201 201 200
337 337 336 331 328 326 328 336 336 337 344 342 309 321 322 325 332 342 345 311 291 264 249 238 216 234 226 199 191 182 185 237 231 223 214 205 197 183 175 181 179 199 191 179 198 227 221 187 169 185 199 201 211 228 215 193 214 251 241 216 227 253 259 250 267 321 261 268 272 185 179 238 215 202 206 195 197 204 199 201 208 206 205 207 206 204 202 202
339 338 335 328 328 329 329 331 329 334 341 328 322 324 323 323 321 329 358 347 297 216 160 192 203 197 183 177 169 157 140 235 223 222 213 204 197 192 188 172 174 192 172 154 219 215 175 175 183 194 194 200 213 221 208 183 202 243 228 180 217 246 257 247 196 215 239 259 283 277 169 196 216 209 206 197 201 205 201 206 211 207 207 208 208 206 204 203
343 339 333 326 325 329 327 324 325 331 330 321 323 326 327 321 305 311 101 320 291 176 146 192 199 159 164 168 169 170 196 152 159 221 211 199 189 189 197 192 178 178 167 169 210 191 157 179 191 192 196 209 213 214 200 182 208 247 222 191 218 239 253 238 174 212 233 245 273 266 177 207 268 229 202 197 201 204 206 211 211 208 210 210 210 209 207 206
344 342 337 325 320 324 322 323 329 329 317 315 320 323 332 325 305 82 118 261 289 309 141 168 167 148 147 158 182 201 244 151 122 205 195 194 193 189 203 203 180 165 180 190 207 187 163 192 192 188 204 217 210 209 198 190 216 239 209 209 239 251 254 216 170 203 198 190 247 250 193 204 269 247 188 195 203 205 209 213 212 210 210 210 210 211 210 208
344 343 339 328 323 324 323 328 336 328 312 312 318 327 339 332 48 101 198 239 285 282 139 122 61 122 141 146 202 229 249 293 342 145 171 186 194 196 210 194 177 155 187 205 215 213 208 200 193 191 208 210 199 205 204 199 212 218 177 207 261 275 279 263 158 158 186 225 241 241 207 190 248 254 191 192 198 202 207 212 215 214 213 213 212 212 210 209
343 342 338 331 330 331 330 337 344 331 310 307 316 327 334 341 79 156 215 259 298 265 65 56 30 42 127 173 236 241 251 290 343 136 161 175 186 198 197 171 170 154 189 220 224 221 226 212 198 197 203 199 191 207 212 202 209 212 159 171 238 285 301 296 256 142 211 236 238 235 213 192 227 249 213 203 197 198 203 207 209 212 213 214 214 214 211 209
341 341 337 330 332 337 342 348 348 331 308 305 311 319 352 78 238 211 240 332 337 293 21 30 6 355 310 283 267 216 226 262 230 160 171 172 180 196 194 183 174 170 201 215 210 211 221 224 221 216 205 195 184 201 215 208 207 208 178 160 185 244 263 246 233 205 223 241 241 219 199 201 229 232 213 208 201 200 204 207 207 207 210 213 214 215 212 209
340 341 335 330 336 347 353 353 351 339 315 295 288 309 89 172 227 213 234 284 320 47 31 8 330 313 280 293 285 204 189 230 231 201 189 184 185 198 202 204 185 177 192 196 188 187 246 256 223 221 221 196 183 183 202 212 205 202 189 169 179 199 215 225 238 267 255 257 254 206 181 213 252 233 210 205 203 203 205 209 211 209 210 211 213 213 211 209
341 342 332 331 343 355 350 352 350 343 322 264 227 129 133 207 236 214 215 254 313 27 25 350 321 301 252 242 253 191 184 232 209 183 192 186 190 201 204 206 200 187 128 148 184 187 214 255 213 206 204 184 191 196 188 180 192 207 189 170 193 197 193 205 204 222 242 260 266 206 175 200 212 218 207 199 205 206 205 209 212 213 214 213 213 212 208 209
341 342 331 335 346 342 347 349 343 337 315 263 229 175 196 211 236 255 227 291 327 354 351 332 311 311 319 266 270 17 21 276 208 188 194 189 198 203 198 201 199 185 140 168 203 188 209 241 229 211 197 173 193 203 175 159 194 212 168 169 208 189 169 219 207 183 193 252 255 211 207 214 216 243 216 199 208 207 206 211 210 214 217 214 213 211 208 210
340 341 336 346 6 349 347 345 335 328 298 260 225 206 225 229 194 239 344 10 341 336 339 332 343 12 344 307 323 14 13 348 293 224 208 194 208 206 202 205 194 192 187 186 202 166 201 239 237 198 208 195 196 192 174 175 187 181 162 190 203 171 181 227 248 207 160 241 249 208 238 265 274 273 243 204 210 209 209 212 211 216 215 207 206 208 208 211
341 339 338 358 33 351 343 339 327 310 261 210 211 225 259 297 286 303 18 29 347 340 349 352 1 357 336 323 339 7 359 344 1 356 270 209 224 207 205 212 196 200 199 192 222 190 176 254 241 175 211 227 208 197 198 191 176 156 191 194 159 160 211 206 211 246 226 241 268 229 222 232 209 249 246 189 203 215 212 211 215 219 212 200 204 208 209 211
337 334 335 10 12 345 339 333 318 279 197 179 242 262 292 286 316 329 333 351 350 341 357 341 274 295 14 352 324 352 355 344 6 3 321 255 296 221 212 223 205 205 200 193 227 224 175 256 272 194 201 222 205 198 232 222 204 206 198 174 150 184 214 184 181 219 214 232 268 266 235 222 204 226 218 189 201 214 214 212 218 221 210 203 208 210 211 212
336 333 330 354 352 344 339 327 302 205 167 189 232 258 294 283 302 305 309 324 325 286 304 224 237 318 360 341 318 334 345 321 331 346 322 297 320 36 16 350 266 238 214 197 199 210 179 212 264 221 193 199 191 187 212 228 226 228 177 174 179 177 191 191 183 191 195 217 244 254 262 240 224 209 187 194 204 206 208 209 214 219 212 209 211 212 213 212
339 332 314 340 350 348 344 328 226 168 166 235 213 259 299 301 297 297 303 309 301 264 302 261 302 324 316 320 316 311 309 288 297 299 272 319 328 55 26 11 335 320 288 225 206 200 181 196 237 261 203 196 195 188 201 209 213 213 200 199 203 186 187 205 203 168 168 181 200 232 252 254 246 207 185 196 205 205 207 205 210 218 214 213 214 213 212 211
341 323 301 341 355 354 356 15 141 133 267 251 282 277 293 307 302 298 293 290 287 271 260 263 280 276 278 303 301 290 303 292 288 270 227 296 321 46 20 8 337 322 330 300 233 212 198 187 211 236 228 208 207 200 201 205 204 202 206 204 198 185 145 184 235 281 150 180 182 199 246 259 246 197 191 199 203 205 206 206 213 221 218 218 219 218 216 214
338 287 311 345 1 360 3 32 47 6 342 326 338 314 317 323 314 316 305 301 311 289 257 249 247 256 266 284 310 335 338 303 284 283 234 300 50 75 10 4 354 335 340 337 296 297 304 206 203 225 230 217 215 210 203 206 205 202 206 202 187 173 150 182 223 237 201 222 170 150 245 265 249 196 191 201 203 204 204 200 206 217 218 220 222 222 220 218
316 296 319 351 8 4 9 46 13 18 358 337 341 326 327 330 324 342 342 339 343 322 298 283 265 304 309 277 11 349 331 306 267 335 347 360 44 55 21 8 1 355 359 348 341 352 345 258 209 231 252 254 245 242 234 210 201 205 211 195 183 193 191 194 201 179 197 217 153 171 250 267 266 215 203 215 207 197 207 204 206 217 219 220 223 224 222 219
314 306 319 358 12 13 23 25 7 7 333 339 344 329 333 344 345 348 344 332 325 323 335 321 313 338 340 356 8 338 339 339 34 36 25 337 348 28 23 11 0 1 10 355 344 343 328 296 257 226 234 250 255 257 258 218 195 210 212 196 201 203 193 183 142 144 219 207 162 192 238 243 275 277 244 239 195 172 220 215 212 218 221 223 226 227 224 221
325 313 318 354 7 35 53 23 15 356 334 343 342 333 343 343 337 339 327 314 322 348 344 311 312 322 320 22 13 335 3 27 347 11 4 326 325 9 17 6 354 348 347 349 351 333 256 260 268 211 215 226 223 223 224 203 189 221 215 207 209 202 191 184 147 173 229 215 164 193 224 243 288 307 279 242 209 204 237 231 222 224 226 229 230 229 226 223
328 312 311 344 356 29 32 16 19 0 340 349 339 330 342 330 322 333 330 322 354 1 337 299 322 335 350 39 9 318 355 22 341 334 318 326 331 349 0 351 335 335 345 353 357 345 250 238 259 239 242 244 247 248 210 167 183 216 216 214 215 209 198 190 183 193 195 186 201 207 192 210 266 273 258 253 235 226 234 231 219 220 225 229 231 229 226 222
323 300 314 341 344 350 353 4 16 1 334 336 330 303 322 319 314 336 347 352 356 352 324 301 2 20 23 22 1 310 333 334 306 297 303 330 312 306 338 332 312 345 357 359 1 357 323 305 296 282 288 286 289 281 238 185 195 210 210 213 214 212 202 198 210 200 154 168 227 214 175 200 239 245 241 244 245 242 238 227 214 220 228 232 233 231 226 222
295 289 312 330 330 334 339 336 341 338 321 323 318 280 307 317 325 343 349 342 344 344 330 326 3 15 8 5 355 311 330 329 299 312 340 339 320 321 336 317 324 5 5 355 359 10 295 268 306 321 315 308 301 288 259 220 210 202 200 208 208 206 206 207 213 192 160 195 228 207 185 203 221 227 230 233 234 235 240 244 243 240 242 243 239 234 227 221
286 282 303 327 322 295 299 302 313 320 317 319 312 287 312 329 338 339 338 336 331 332 342 336 339 348 348 342 336 313 329 326 304 328 339 321 318 328 330 308 9 19 7 344 345 9 316 276 323 328 315 308 303 290 262 239 230 209 200 201 200 205 209 211 212 197 189 213 223 197 197 212 217 212 214 229 237 237 245 255 252 241 240 240 237 230 224 219
289 287 300 318 304 285 285 288 301 313 311 311 298 289 316 328 329 330 329 319 303 305 337 343 330 331 326 322 321 295 288 299 293 295 299 302 321 332 310 300 356 5 353 327 328 13 19 304 322 325 313 305 301 294 266 237 229 229 220 204 200 208 210 211 211 197 199 221 221 192 203 228 243 222 213 232 245 249 248 248 240 235 235 233 227 223 219 214
289 295 302 306 294 287 287 287 298 300 297 298 289 308 327 324 322 326 310 278 267 277 322 337 327 322 311 306 302 283 287 298 289 288 282 267 273 278 270 291 323 334 337 308 288 342 28 298 312 325 319 298 299 320 312 272 236 233 237 219 206 207 211 214 206 186 190 206 209 202 210 236 247 233 230 247 251 230 232 251 262 255 240 227 220 218 215 210
293 296 303 304 290 293 296 289 289 283 287 305 314 319 323 312 314 323 314 292 292 305 320 325 316 315 309 295 280 276 294 302 295 294 290 272 259 258 260 263 266 265 268 289 280 243 180 267 303 325 320 290 293 317 321 303 249 230 231 221 211 206 207 216 210 195 193 192 199 212 215 228 230 199 199 233 238 229 231 296 352 338 263 234 224 219 215 212